Wetterdaten: Mittwoch, 26.08.2015
Datum Zeit Auen-Temp. Temp gefhlt Luftfeuchte Luftdruck Regen Wind Richtung Richtung Taupunkt Windben
26.08.2015 00:00 9,3 C 9,1 C 87 % 1014,6 hPa 0,0 mm 0,0 km/h (0 Bft) W 270 7,2 C 0,0 km/h (0 Bft)
26.08.2015 00:05 9,2 C 9,0 C 87 % 1014,6 hPa 0,0 mm 0,0 km/h (0 Bft) W 270 7,2 C 0,0 km/h (0 Bft)
26.08.2015 00:10 9,2 C 9,0 C 87 % 1014,6 hPa 0,0 mm 0,0 km/h (0 Bft) W 270 7,2 C 0,0 km/h (0 Bft)
26.08.2015 00:11 9,2 C 8,9 C 87 % 1014,7 hPa 0,0 mm 0,0 km/h (0 Bft) SW 225 7,2 C 0,0 km/h (0 Bft)
26.08.2015 00:12 9,2 C 8,9 C 87 % 1014,7 hPa 0,0 mm 0,0 km/h (0 Bft) SW 225 7,2 C 0,0 km/h (0 Bft)
26.08.2015 00:15 9,2 C 8,9 C 87 % 1014,7 hPa 0,0 mm 0,0 km/h (0 Bft) SW 225 7,2 C 0,0 km/h (0 Bft)
26.08.2015 00:20 9,3 C 9,0 C 87 % 1014,7 hPa 0,0 mm 0,0 km/h (0 Bft) S 180 7,2 C 0,0 km/h (0 Bft)
26.08.2015 00:25 9,2 C 8,9 C 87 % 1014,7 hPa 0,0 mm 0,0 km/h (0 Bft) S 180 7,2 C 0,0 km/h (0 Bft)
26.08.2015 00:30 9,0 C 8,8 C 87 % 1014,7 hPa 0,0 mm 0,0 km/h (0 Bft) W 270 7,0 C 0,0 km/h (0 Bft)
26.08.2015 00:35 9,1 C 8,9 C 87 % 1014,5 hPa 0,0 mm 0,0 km/h (0 Bft) W 270 7,1 C 0,0 km/h (0 Bft)
26.08.2015 00:40 9,3 C 9,0 C 87 % 1014,5 hPa 0,0 mm 0,0 km/h (0 Bft) W-SW 247 7,2 C 0,0 km/h (0 Bft)
26.08.2015 00:45 9,2 C 8,9 C 87 % 1014,5 hPa 0,0 mm 0,0 km/h (0 Bft) W-SW 247 7,2 C 0,0 km/h (0 Bft)
26.08.2015 00:50 9,2 C 8,9 C 88 % 1014,5 hPa 0,0 mm 0,0 km/h (0 Bft) S-SW 202 7,3 C 0,0 km/h (0 Bft)
26.08.2015 00:55 9,1 C 8,8 C 88 % 1014,4 hPa 0,0 mm 0,0 km/h (0 Bft) W-SW 247 7,2 C 0,0 km/h (0 Bft)
26.08.2015 01:00 9,1 C 8,8 C 88 % 1014,4 hPa 0,0 mm 0,0 km/h (0 Bft) S-SW 202 7,2 C 0,0 km/h (0 Bft)
26.08.2015 01:05 9,0 C 8,8 C 88 % 1014,4 hPa 0,0 mm 0,0 km/h (0 Bft) W-SW 247 7,1 C 0,0 km/h (0 Bft)
26.08.2015 01:10 9,0 C 8,7 C 88 % 1014,4 hPa 0,0 mm 0,0 km/h (0 Bft) W-SW 247 7,1 C 0,0 km/h (0 Bft)
26.08.2015 01:15 9,1 C 8,8 C 88 % 1014,3 hPa 0,0 mm 0,0 km/h (0 Bft) SW 225 7,2 C 0,0 km/h (0 Bft)
26.08.2015 01:20 9,3 C 9,0 C 88 % 1014,3 hPa 0,0 mm 0,0 km/h (0 Bft) S 180 7,4 C 0,0 km/h (0 Bft)
26.08.2015 01:25 9,2 C 8,9 C 88 % 1014,3 hPa 0,0 mm 0,0 km/h (0 Bft) SW 225 7,3 C 0,0 km/h (0 Bft)
26.08.2015 01:30 9,2 C 8,9 C 88 % 1014,3 hPa 0,0 mm 0,0 km/h (0 Bft) W 270 7,3 C 0,0 km/h (0 Bft)
26.08.2015 01:35 8,9 C 8,6 C 88 % 1014,5 hPa 0,0 mm 0,0 km/h (0 Bft) W 270 7,0 C 0,0 km/h (0 Bft)
26.08.2015 01:40 8,6 C 8,4 C 88 % 1014,5 hPa 0,0 mm 0,0 km/h (0 Bft) W 270 6,7 C 0,0 km/h (0 Bft)
26.08.2015 01:45 8,5 C 8,3 C 88 % 1014,5 hPa 0,0 mm 0,0 km/h (0 Bft) S 180 6,6 C 0,0 km/h (0 Bft)
26.08.2015 01:50 8,5 C 8,3 C 88 % 1014,5 hPa 0,0 mm 0,0 km/h (0 Bft) S 180 6,6 C 0,0 km/h (0 Bft)
26.08.2015 01:55 8,2 C 8,0 C 88 % 1014,6 hPa 0,0 mm 0,0 km/h (0 Bft) W 270 6,3 C 0,0 km/h (0 Bft)
26.08.2015 02:00 8,1 C 7,9 C 88 % 1014,6 hPa 0,0 mm 0,0 km/h (0 Bft) SW 225 6,2 C 0,0 km/h (0 Bft)
26.08.2015 02:05 8,1 C 7,9 C 88 % 1014,6 hPa 0,0 mm 0,0 km/h (0 Bft) S 180 6,2 C 0,0 km/h (0 Bft)
26.08.2015 02:10 8,4 C 8,1 C 88 % 1014,6 hPa 0,0 mm 0,0 km/h (0 Bft) S 180 6,5 C 0,0 km/h (0 Bft)
26.08.2015 02:15 8,5 C 8,2 C 88 % 1014,7 hPa 0,0 mm 0,0 km/h (0 Bft) S 180 6,6 C 0,0 km/h (0 Bft)
26.08.2015 02:20 8,3 C 8,0 C 88 % 1014,7 hPa 0,0 mm 0,0 km/h (0 Bft) S 180 6,4 C 0,0 km/h (0 Bft)
26.08.2015 02:25 8,2 C 8,0 C 88 % 1014,7 hPa 0,0 mm 0,0 km/h (0 Bft) S 180 6,3 C 0,0 km/h (0 Bft)
26.08.2015 02:30 7,9 C 7,8 C 88 % 1014,7 hPa 0,0 mm 0,0 km/h (0 Bft) S 180 6,0 C 0,0 km/h (0 Bft)
26.08.2015 02:35 7,7 C 7,6 C 88 % 1014,6 hPa 0,0 mm 0,0 km/h (0 Bft) S 180 5,8 C 0,0 km/h (0 Bft)
26.08.2015 02:40 7,8 C 7,6 C 88 % 1014,6 hPa 0,0 mm 0,0 km/h (0 Bft) S 180 5,9 C 0,0 km/h (0 Bft)
26.08.2015 02:45 7,8 C 7,6 C 89 % 1014,6 hPa 0,0 mm 0,0 km/h (0 Bft) W 270 6,1 C 0,0 km/h (0 Bft)
26.08.2015 02:50 7,8 C 7,6 C 89 % 1014,6 hPa 0,0 mm 0,0 km/h (0 Bft) W-NW 292 6,1 C 0,0 km/h (0 Bft)
26.08.2015 02:55 7,8 C 7,6 C 89 % 1014,6 hPa 0,0 mm 0,0 km/h (0 Bft) W-NW 292 6,1 C 0,0 km/h (0 Bft)
26.08.2015 03:00 7,7 C 7,5 C 89 % 1014,6 hPa 0,0 mm 0,0 km/h (0 Bft) W 270 6,0 C 0,0 km/h (0 Bft)
26.08.2015 03:05 7,7 C 7,5 C 89 % 1014,6 hPa 0,0 mm 0,0 km/h (0 Bft) W 270 6,0 C 0,0 km/h (0 Bft)
26.08.2015 03:10 7,9 C 7,7 C 89 % 1014,6 hPa 0,0 mm 0,0 km/h (0 Bft) NW 315 6,2 C 0,0 km/h (0 Bft)
26.08.2015 03:15 7,9 C 7,7 C 89 % 1014,5 hPa 0,0 mm 0,0 km/h (0 Bft) N-NO 22 6,2 C 0,0 km/h (0 Bft)
26.08.2015 03:20 8,0 C 7,9 C 89 % 1014,5 hPa 0,0 mm 0,3 km/h (0 Bft) N-NO 22 6,3 C 0,0 km/h (0 Bft)
26.08.2015 03:25 7,9 C 7,8 C 89 % 1014,5 hPa 0,0 mm 0,3 km/h (0 Bft) W-NW 292 6,2 C 0,0 km/h (0 Bft)
26.08.2015 03:30 7,9 C 7,8 C 89 % 1014,5 hPa 0,0 mm 0,3 km/h (0 Bft) W-NW 292 6,2 C 3,6 km/h (1 Bft)
26.08.2015 03:35 7,8 C 7,7 C 89 % 1014,3 hPa 0,0 mm 0,3 km/h (0 Bft) W 270 6,1 C 0,0 km/h (0 Bft)
26.08.2015 03:40 7,8 C 7,6 C 89 % 1014,3 hPa 0,0 mm 0,0 km/h (0 Bft) SW 225 6,1 C 0,0 km/h (0 Bft)
26.08.2015 03:45 7,8 C 7,6 C 89 % 1014,3 hPa 0,0 mm 0,5 km/h (0 Bft) W 270 6,1 C 2,8 km/h (1 Bft)
26.08.2015 03:50 7,7 C 7,5 C 89 % 1014,3 hPa 0,0 mm 0,5 km/h (0 Bft) W-SW 247 6,0 C 5,2 km/h (1 Bft)
26.08.2015 03:55 7,8 C 7,6 C 89 % 1014,4 hPa 0,0 mm 0,5 km/h (0 Bft) S 180 6,1 C 0,0 km/h (0 Bft)
26.08.2015 04:00 7,6 C 7,4 C 89 % 1014,4 hPa 0,0 mm 0,3 km/h (0 Bft) N-NO 22 5,9 C 0,0 km/h (0 Bft)
26.08.2015 04:05 7,6 C 7,4 C 89 % 1014,4 hPa 0,0 mm 0,0 km/h (0 Bft) NO 45 5,9 C 0,0 km/h (0 Bft)
26.08.2015 04:10 7,7 C 7,4 C 89 % 1014,4 hPa 0,0 mm 0,0 km/h (0 Bft) N-NO 22 6,0 C 0,0 km/h (0 Bft)
26.08.2015 04:15 7,6 C 7,4 C 89 % 1014,3 hPa 0,0 mm 0,0 km/h (0 Bft) N-NO 22 5,9 C 0,0 km/h (0 Bft)
26.08.2015 04:20 7,4 C 7,2 C 89 % 1014,3 hPa 0,0 mm 0,0 km/h (0 Bft) NO 45 5,7 C 0,0 km/h (0 Bft)
26.08.2015 04:25 7,2 C 7,0 C 89 % 1014,3 hPa 0,0 mm 0,0 km/h (0 Bft) NO 45 5,5 C 0,0 km/h (0 Bft)
26.08.2015 04:30 7,6 C 7,3 C 89 % 1014,3 hPa 0,0 mm 0,0 km/h (0 Bft) N-NO 22 5,9 C 0,0 km/h (0 Bft)
26.08.2015 04:35 7,6 C 7,3 C 89 % 1014,3 hPa 0,0 mm 0,0 km/h (0 Bft) W 270 5,9 C 0,0 km/h (0 Bft)
26.08.2015 04:40 7,3 C 7,1 C 89 % 1014,3 hPa 0,0 mm 0,0 km/h (0 Bft) W 270 5,6 C 0,0 km/h (0 Bft)
26.08.2015 04:45 7,3 C 7,1 C 89 % 1014,3 hPa 0,0 mm 0,0 km/h (0 Bft) W 270 5,6 C 0,0 km/h (0 Bft)
26.08.2015 04:50 7,2 C 7,0 C 89 % 1014,3 hPa 0,0 mm 0,0 km/h (0 Bft) W 270 5,5 C 0,0 km/h (0 Bft)
26.08.2015 04:55 7,2 C 7,0 C 89 % 1014,4 hPa 0,0 mm 0,0 km/h (0 Bft) W 270 5,5 C 0,0 km/h (0 Bft)
26.08.2015 05:00 7,1 C 6,9 C 89 % 1014,4 hPa 0,0 mm 0,0 km/h (0 Bft) W 270 5,4 C 0,0 km/h (0 Bft)
26.08.2015 05:05 7,1 C 6,9 C 89 % 1014,4 hPa 0,0 mm 0,0 km/h (0 Bft) W 270 5,4 C 0,0 km/h (0 Bft)
26.08.2015 05:10 7,0 C 6,8 C 89 % 1014,4 hPa 0,0 mm 0,0 km/h (0 Bft) W-NW 292 5,3 C 0,0 km/h (0 Bft)
26.08.2015 05:15 7,0 C 6,8 C 89 % 1014,4 hPa 0,0 mm 0,0 km/h (0 Bft) W-SW 247 5,3 C 0,0 km/h (0 Bft)
26.08.2015 05:20 7,0 C 6,8 C 89 % 1014,4 hPa 0,0 mm 0,0 km/h (0 Bft) NW 315 5,3 C 0,0 km/h (0 Bft)
26.08.2015 05:25 7,0 C 6,8 C 89 % 1014,4 hPa 0,0 mm 0,0 km/h (0 Bft) NW 315 5,3 C 0,0 km/h (0 Bft)
26.08.2015 05:30 7,0 C 6,8 C 89 % 1014,4 hPa 0,0 mm 0,0 km/h (0 Bft) W 270 5,3 C 0,0 km/h (0 Bft)
26.08.2015 05:35 6,9 C 6,7 C 90 % 1014,1 hPa 0,0 mm 0,0 km/h (0 Bft) SW 225 5,4 C 0,0 km/h (0 Bft)
26.08.2015 05:40 7,2 C 7,0 C 89 % 1014,1 hPa 0,0 mm 0,0 km/h (0 Bft) NW 315 5,5 C 0,0 km/h (0 Bft)
26.08.2015 05:45 7,1 C 6,9 C 89 % 1014,1 hPa 0,0 mm 0,0 km/h (0 Bft) NW 315 5,4 C 0,0 km/h (0 Bft)
26.08.2015 05:50 7,1 C 6,9 C 89 % 1014,1 hPa 0,0 mm 0,0 km/h (0 Bft) W-SW 247 5,4 C 0,0 km/h (0 Bft)
26.08.2015 05:55 7,3 C 7,0 C 90 % 1014,0 hPa 0,0 mm 0,0 km/h (0 Bft) N-NW 337 5,8 C 0,0 km/h (0 Bft)
26.08.2015 06:00 7,1 C 6,9 C 90 % 1014,0 hPa 0,0 mm 0,0 km/h (0 Bft) N-NW 337 5,6 C 0,0 km/h (0 Bft)
26.08.2015 06:05 7,3 C 7,0 C 90 % 1014,0 hPa 0,0 mm 0,0 km/h (0 Bft) W-SW 247 5,8 C 0,0 km/h (0 Bft)
26.08.2015 06:10 7,3 C 7,0 C 90 % 1014,0 hPa 0,0 mm 0,0 km/h (0 Bft) W-NW 292 5,8 C 0,0 km/h (0 Bft)
26.08.2015 06:11 7,2 C 7,0 C 90 % 1013,9 hPa 0,0 mm 0,3 km/h (0 Bft) W-SW 247 5,7 C 0,0 km/h (0 Bft)
26.08.2015 06:13 7,2 C 7,0 C 90 % 1013,9 hPa 0,0 mm 0,3 km/h (0 Bft) W-SW 247 5,7 C 0,0 km/h (0 Bft)
26.08.2015 06:15 7,2 C 7,0 C 90 % 1013,9 hPa 0,0 mm 0,3 km/h (0 Bft) W-SW 247 5,7 C 0,0 km/h (0 Bft)
26.08.2015 06:20 7,4 C 7,1 C 90 % 1013,9 hPa 0,0 mm 0,3 km/h (0 Bft) N-NW 337 5,9 C 0,0 km/h (0 Bft)
26.08.2015 06:25 7,1 C 6,9 C 90 % 1013,9 hPa 0,0 mm 0,0 km/h (0 Bft) N-NW 337 5,6 C 0,0 km/h (0 Bft)
26.08.2015 06:30 7,0 C 6,8 C 89 % 1013,9 hPa 0,0 mm 0,0 km/h (0 Bft) N-NW 337 5,3 C 0,0 km/h (0 Bft)
26.08.2015 06:35 6,9 C 6,7 C 90 % 1013,9 hPa 0,0 mm 0,0 km/h (0 Bft) N-NW 337 5,4 C 0,0 km/h (0 Bft)
26.08.2015 06:40 7,0 C 6,8 C 89 % 1013,9 hPa 0,0 mm 0,0 km/h (0 Bft) W-SW 247 5,3 C 0,0 km/h (0 Bft)
26.08.2015 06:45 7,1 C 6,9 C 89 % 1013,9 hPa 0,0 mm 0,0 km/h (0 Bft) NW 315 5,4 C 0,0 km/h (0 Bft)
26.08.2015 06:50 7,0 C 6,8 C 89 % 1013,9 hPa 0,0 mm 0,0 km/h (0 Bft) W-NW 292 5,3 C 0,0 km/h (0 Bft)
26.08.2015 06:55 7,0 C 6,9 C 89 % 1013,9 hPa 0,0 mm 0,0 km/h (0 Bft) NW 315 5,3 C 0,0 km/h (0 Bft)
26.08.2015 07:00 7,1 C 7,0 C 89 % 1013,9 hPa 0,0 mm 0,0 km/h (0 Bft) NW 315 5,4 C 0,0 km/h (0 Bft)
26.08.2015 07:05 7,1 C 7,0 C 89 % 1013,9 hPa 0,0 mm 0,0 km/h (0 Bft) W-NW 292 5,4 C 0,0 km/h (0 Bft)
26.08.2015 07:10 7,1 C 7,0 C 89 % 1013,9 hPa 0,0 mm 0,0 km/h (0 Bft) W-NW 292 5,4 C 0,0 km/h (0 Bft)
26.08.2015 07:15 7,2 C 7,1 C 90 % 1014,1 hPa 0,0 mm 0,0 km/h (0 Bft) NW 315 5,7 C 0,0 km/h (0 Bft)
26.08.2015 07:20 7,3 C 7,3 C 90 % 1014,1 hPa 0,0 mm 0,0 km/h (0 Bft) W 270 5,8 C 0,0 km/h (0 Bft)
26.08.2015 07:25 7,4 C 7,3 C 90 % 1014,1 hPa 0,0 mm 0,0 km/h (0 Bft) N-NW 337 5,9 C 0,0 km/h (0 Bft)
26.08.2015 07:30 7,6 C 7,5 C 90 % 1014,1 hPa 0,0 mm 0,0 km/h (0 Bft) W-SW 247 6,1 C 0,0 km/h (0 Bft)
26.08.2015 07:35 7,7 C 7,8 C 90 % 1014,1 hPa 0,0 mm 0,0 km/h (0 Bft) W-SW 247 6,2 C 0,0 km/h (0 Bft)
26.08.2015 07:40 8,1 C 8,3 C 90 % 1014,1 hPa 0,0 mm 0,0 km/h (0 Bft) N-NW 337 6,6 C 0,0 km/h (0 Bft)
26.08.2015 07:45 8,2 C 8,5 C 86 % 1014,1 hPa 0,0 mm 0,0 km/h (0 Bft) N-NW 337 6,0 C 0,0 km/h (0 Bft)
26.08.2015 07:50 8,8 C 11,0 C 86 % 1014,1 hPa 0,0 mm 0,0 km/h (0 Bft) NW 315 6,6 C 0,0 km/h (0 Bft)
26.08.2015 07:55 9,5 C 12,6 C 86 % 1014,2 hPa 0,0 mm 0,0 km/h (0 Bft) W-SW 247 7,3 C 0,0 km/h (0 Bft)
26.08.2015 08:00 10,2 C 14,2 C 86 % 1014,2 hPa 0,0 mm 0,0 km/h (0 Bft) W-NW 292 8,0 C 0,0 km/h (0 Bft)
26.08.2015 08:05 11,1 C 15,6 C 85 % 1014,2 hPa 0,0 mm 0,0 km/h (0 Bft) W-SW 247 8,7 C 0,0 km/h (0 Bft)
26.08.2015 08:10 11,9 C 16,8 C 85 % 1014,2 hPa 0,0 mm 0,0 km/h (0 Bft) W-SW 247 9,5 C 0,0 km/h (0 Bft)
26.08.2015 08:15 12,2 C 17,4 C 87 % 1014,1 hPa 0,0 mm 0,0 km/h (0 Bft) SO 135 10,1 C 0,0 km/h (0 Bft)
26.08.2015 08:20 12,5 C 18,0 C 83 % 1014,1 hPa 0,0 mm 0,0 km/h (0 Bft) O-SO 112 9,7 C 0,0 km/h (0 Bft)
26.08.2015 08:25 12,9 C 18,7 C 83 % 1014,1 hPa 0,0 mm 0,0 km/h (0 Bft) NO 45 10,1 C 0,0 km/h (0 Bft)
26.08.2015 08:30 13,7 C 20,0 C 81 % 1014,1 hPa 0,0 mm 0,0 km/h (0 Bft) O-NO 67 10,5 C 0,0 km/h (0 Bft)
26.08.2015 08:35 13,7 C 20,7 C 79 % 1014,1 hPa 0,0 mm 0,0 km/h (0 Bft) O 90 10,1 C 0,0 km/h (0 Bft)
26.08.2015 08:40 14,0 C 21,1 C 78 % 1014,1 hPa 0,0 mm 0,0 km/h (0 Bft) O-SO 112 10,2 C 0,0 km/h (0 Bft)
26.08.2015 08:45 14,4 C 21,9 C 78 % 1014,1 hPa 0,0 mm 0,0 km/h (0 Bft) O-SO 112 10,6 C 0,0 km/h (0 Bft)
26.08.2015 08:50 15,3 C 23,3 C 77 % 1014,1 hPa 0,0 mm 0,0 km/h (0 Bft) NO 45 11,3 C 0,0 km/h (0 Bft)
26.08.2015 08:55 15,5 C 23,7 C 76 % 1014,8 hPa 0,0 mm 0,0 km/h (0 Bft) N-NO 22 11,3 C 0,0 km/h (0 Bft)
26.08.2015 09:00 15,6 C 25,3 C 75 % 1014,8 hPa 0,0 mm 0,0 km/h (0 Bft) S 180 11,2 C 0,0 km/h (0 Bft)
26.08.2015 09:05 15,8 C 25,8 C 74 % 1014,8 hPa 0,0 mm 0,3 km/h (0 Bft) NW 315 11,2 C 0,0 km/h (0 Bft)
26.08.2015 09:10 16,3 C 26,1 C 72 % 1014,8 hPa 0,0 mm 0,3 km/h (0 Bft) O-SO 112 11,2 C 0,0 km/h (0 Bft)
26.08.2015 09:15 16,3 C 26,3 C 71 % 1015,2 hPa 0,0 mm 0,0 km/h (0 Bft) O-NO 67 11,0 C 0,0 km/h (0 Bft)
26.08.2015 09:20 16,6 C 26,9 C 70 % 1015,2 hPa 0,0 mm 0,0 km/h (0 Bft) O 90 11,1 C 0,0 km/h (0 Bft)
26.08.2015 09:25 16,9 C 27,2 C 70 % 1015,2 hPa 0,0 mm 0,0 km/h (0 Bft) O 90 11,4 C 0,0 km/h (0 Bft)
26.08.2015 09:30 17,2 C 27,8 C 70 % 1015,2 hPa 0,0 mm 0,0 km/h (0 Bft) O 90 11,7 C 0,0 km/h (0 Bft)
26.08.2015 09:35 17,2 C 27,8 C 69 % 1015,3 hPa 0,0 mm 0,0 km/h (0 Bft) O-NO 67 11,5 C 0,0 km/h (0 Bft)
26.08.2015 09:40 17,6 C 28,4 C 68 % 1015,3 hPa 0,0 mm 0,0 km/h (0 Bft) O 90 11,6 C 0,0 km/h (0 Bft)
26.08.2015 09:45 17,9 C 28,6 C 67 % 1015,3 hPa 0,0 mm 0,0 km/h (0 Bft) O 90 11,7 C 0,0 km/h (0 Bft)
26.08.2015 09:50 18,4 C 28,8 C 67 % 1015,3 hPa 0,0 mm 0,0 km/h (0 Bft) NO 45 12,2 C 0,0 km/h (0 Bft)
26.08.2015 09:55 18,8 C 28,9 C 68 % 1015,2 hPa 0,0 mm 0,0 km/h (0 Bft) NO 45 12,8 C 0,0 km/h (0 Bft)
26.08.2015 10:00 19,7 C 28,9 C 66 % 1015,2 hPa 0,0 mm 0,0 km/h (0 Bft) NO 45 13,2 C 0,0 km/h (0 Bft)
26.08.2015 10:05 19,8 C 28,5 C 65 % 1015,2 hPa 0,0 mm 0,8 km/h (0 Bft) O-NO 67 13,0 C 2,6 km/h (1 Bft)
26.08.2015 10:10 19,9 C 28,1 C 64 % 1015,2 hPa 0,0 mm 0,8 km/h (0 Bft) O 90 12,9 C 6,0 km/h (2 Bft)
26.08.2015 10:15 20,1 C 28,1 C 63 % 1015,2 hPa 0,0 mm 0,5 km/h (0 Bft) NO 45 12,8 C 0,0 km/h (0 Bft)
26.08.2015 10:20 20,4 C 28,2 C 64 % 1015,2 hPa 0,0 mm 0,5 km/h (0 Bft) O-NO 67 13,4 C 0,0 km/h (0 Bft)
26.08.2015 10:25 20,4 C 27,9 C 63 % 1015,2 hPa 0,0 mm 1,8 km/h (1 Bft) N-NO 22 13,1 C 3,6 km/h (1 Bft)
26.08.2015 10:30 20,5 C 27,1 C 62 % 1015,2 hPa 0,0 mm 4,1 km/h (1 Bft) N-NO 22 13,0 C 13,7 km/h (3 Bft)
26.08.2015 10:35 20,4 C 27,0 C 62 % 1013,7 hPa 0,0 mm 4,4 km/h (1 Bft) O-NO 67 12,9 C 10,9 km/h (2 Bft)
26.08.2015 10:40 20,5 C 26,4 C 60 % 1013,7 hPa 0,0 mm 4,7 km/h (1 Bft) O 90 12,5 C 0,0 km/h (0 Bft)
26.08.2015 10:45 20,4 C 26,3 C 60 % 1013,7 hPa 0,0 mm 5,4 km/h (1 Bft) O-NO 67 12,4 C 2,6 km/h (1 Bft)
26.08.2015 10:50 20,5 C 26,4 C 59 % 1013,7 hPa 0,0 mm 4,7 km/h (1 Bft) O-NO 67 12,2 C 14,2 km/h (3 Bft)
26.08.2015 10:55 20,7 C 26,4 C 59 % 1015,1 hPa 0,0 mm 4,1 km/h (1 Bft) O-NO 67 12,4 C 4,9 km/h (1 Bft)
26.08.2015 11:00 20,8 C 26,1 C 58 % 1015,1 hPa 0,0 mm 6,0 km/h (2 Bft) W 270 12,2 C 16,8 km/h (3 Bft)
26.08.2015 11:05 20,6 C 25,6 C 57 % 1015,1 hPa 0,0 mm 7,5 km/h (2 Bft) NO 45 11,8 C 12,7 km/h (3 Bft)
26.08.2015 11:10 20,6 C 25,6 C 57 % 1015,1 hPa 0,0 mm 7,3 km/h (2 Bft) NO 45 11,8 C 18,1 km/h (3 Bft)
26.08.2015 11:15 20,7 C 25,9 C 57 % 1015,0 hPa 0,0 mm 6,2 km/h (2 Bft) O-NO 67 11,9 C 4,4 km/h (1 Bft)
26.08.2015 11:20 20,9 C 26,0 C 56 % 1015,0 hPa 0,0 mm 6,0 km/h (2 Bft) NO 45 11,8 C 6,0 km/h (2 Bft)
26.08.2015 11:25 21,0 C 26,0 C 56 % 1015,0 hPa 0,0 mm 6,5 km/h (2 Bft) O 90 11,9 C 10,6 km/h (2 Bft)
26.08.2015 11:30 20,9 C 25,8 C 57 % 1015,0 hPa 0,0 mm 6,2 km/h (2 Bft) O-NO 67 12,1 C 10,4 km/h (2 Bft)
26.08.2015 11:35 21,0 C 25,6 C 56 % 1015,1 hPa 0,0 mm 6,7 km/h (2 Bft) NO 45 11,9 C 3,6 km/h (1 Bft)
26.08.2015 11:40 21,4 C 26,1 C 56 % 1015,1 hPa 0,0 mm 5,7 km/h (1 Bft) NO 45 12,3 C 9,1 km/h (2 Bft)
26.08.2015 11:45 21,5 C 26,2 C 56 % 1015,1 hPa 0,0 mm 6,5 km/h (2 Bft) W 270 12,3 C 11,4 km/h (2 Bft)
26.08.2015 11:50 21,2 C 26,0 C 55 % 1015,1 hPa 0,0 mm 8,0 km/h (2 Bft) O-NO 67 11,8 C 8,0 km/h (2 Bft)
26.08.2015 11:55 21,3 C 26,0 C 55 % 1015,1 hPa 0,0 mm 8,5 km/h (2 Bft) NO 45 11,9 C 17,1 km/h (3 Bft)
26.08.2015 12:00 21,4 C 25,8 C 55 % 1015,1 hPa 0,0 mm 7,8 km/h (2 Bft) NO 45 12,0 C 8,0 km/h (2 Bft)
26.08.2015 12:05 21,4 C 26,0 C 55 % 1015,1 hPa 0,0 mm 7,8 km/h (2 Bft) N-NO 22 12,0 C 13,7 km/h (3 Bft)
26.08.2015 12:10 21,4 C 25,8 C 54 % 1015,1 hPa 0,0 mm 8,8 km/h (2 Bft) N-NO 22 11,7 C 14,0 km/h (3 Bft)
26.08.2015 12:11 21,3 C 25,5 C 54 % 1014,9 hPa 0,0 mm 9,8 km/h (2 Bft) N 360 11,6 C 7,5 km/h (2 Bft)
26.08.2015 12:14 21,3 C 25,5 C 54 % 1014,9 hPa 0,0 mm 9,8 km/h (2 Bft) N 360 11,6 C 7,5 km/h (2 Bft)
26.08.2015 12:15 21,3 C 25,5 C 54 % 1014,9 hPa 0,0 mm 9,8 km/h (2 Bft) N 360 11,6 C 7,5 km/h (2 Bft)
26.08.2015 12:20 21,7 C 26,0 C 54 % 1014,9 hPa 0,0 mm 8,3 km/h (2 Bft) O-SO 112 12,0 C 11,1 km/h (2 Bft)
26.08.2015 12:25 21,6 C 25,8 C 53 % 1014,9 hPa 0,0 mm 7,5 km/h (2 Bft) NO 45 11,6 C 12,7 km/h (3 Bft)
26.08.2015 12:30 21,7 C 25,6 C 53 % 1014,9 hPa 0,0 mm 9,1 km/h (2 Bft) O-SO 112 11,7 C 11,1 km/h (2 Bft)
26.08.2015 12:35 21,9 C 26,0 C 53 % 1014,8 hPa 0,0 mm 8,0 km/h (2 Bft) O-NO 67 11,9 C 8,5 km/h (2 Bft)
26.08.2015 12:40 22,2 C 26,4 C 54 % 1014,8 hPa 0,0 mm 6,5 km/h (2 Bft) O-NO 67 12,4 C 4,7 km/h (1 Bft)
26.08.2015 12:45 22,2 C 26,8 C 53 % 1014,8 hPa 0,0 mm 6,5 km/h (2 Bft) N-NO 22 12,2 C 14,8 km/h (3 Bft)
26.08.2015 12:50 22,2 C 26,5 C 54 % 1014,8 hPa 0,0 mm 6,5 km/h (2 Bft) O 90 12,4 C 4,9 km/h (1 Bft)
26.08.2015 12:55 22,4 C 26,5 C 55 % 1014,6 hPa 0,0 mm 8,0 km/h (2 Bft) N-NW 337 12,9 C 18,6 km/h (3 Bft)
26.08.2015 13:00 22,2 C 25,2 C 55 % 1014,6 hPa 0,0 mm 8,0 km/h (2 Bft) NO 45 12,7 C 21,0 km/h (4 Bft)
26.08.2015 13:05 22,6 C 24,9 C 56 % 1014,6 hPa 0,0 mm 7,8 km/h (2 Bft) O-NO 67 13,4 C 8,8 km/h (2 Bft)
26.08.2015 13:10 22,3 C 24,2 C 54 % 1014,6 hPa 0,0 mm 7,5 km/h (2 Bft) O-NO 67 12,5 C 11,4 km/h (2 Bft)
26.08.2015 13:15 22,3 C 24,1 C 54 % 1014,5 hPa 0,0 mm 8,0 km/h (2 Bft) O 90 12,5 C 6,5 km/h (2 Bft)
26.08.2015 13:20 22,6 C 24,8 C 55 % 1014,5 hPa 0,0 mm 7,3 km/h (2 Bft) O-NO 67 13,1 C 2,8 km/h (1 Bft)
26.08.2015 13:25 22,8 C 25,5 C 54 % 1014,5 hPa 0,0 mm 7,3 km/h (2 Bft) N-NW 337 13,0 C 4,7 km/h (1 Bft)
26.08.2015 13:30 22,7 C 26,4 C 54 % 1014,5 hPa 0,0 mm 7,5 km/h (2 Bft) N-NO 22 12,9 C 8,5 km/h (2 Bft)
26.08.2015 13:35 23,0 C 26,8 C 52 % 1014,3 hPa 0,0 mm 6,7 km/h (2 Bft) NO 45 12,6 C 3,1 km/h (1 Bft)
26.08.2015 13:40 23,0 C 27,3 C 52 % 1014,3 hPa 0,0 mm 6,5 km/h (2 Bft) N-NW 337 12,6 C 10,6 km/h (2 Bft)
26.08.2015 13:45 23,0 C 27,3 C 51 % 1014,3 hPa 0,0 mm 8,0 km/h (2 Bft) N-NO 22 12,3 C 14,0 km/h (3 Bft)
26.08.2015 13:50 23,1 C 27,1 C 51 % 1014,3 hPa 0,0 mm 8,5 km/h (2 Bft) O-SO 112 12,4 C 3,4 km/h (1 Bft)
26.08.2015 13:55 23,2 C 27,6 C 51 % 1014,4 hPa 0,0 mm 6,7 km/h (2 Bft) NO 45 12,5 C 8,3 km/h (2 Bft)
26.08.2015 14:00 23,2 C 27,8 C 51 % 1014,4 hPa 0,0 mm 4,7 km/h (1 Bft) N-NW 337 12,5 C 2,8 km/h (1 Bft)
26.08.2015 14:05 23,4 C 28,0 C 50 % 1014,4 hPa 0,0 mm 5,4 km/h (1 Bft) O-SO 112 12,4 C 6,7 km/h (2 Bft)
26.08.2015 14:10 23,5 C 28,4 C 51 % 1014,4 hPa 0,0 mm 4,4 km/h (1 Bft) O 90 12,8 C 4,1 km/h (1 Bft)
26.08.2015 14:15 23,6 C 28,4 C 51 % 1013,8 hPa 0,0 mm 4,9 km/h (1 Bft) O-NO 67 12,9 C 7,3 km/h (2 Bft)
26.08.2015 14:20 23,9 C 28,5 C 50 % 1013,8 hPa 0,0 mm 5,4 km/h (1 Bft) O 90 12,8 C 8,0 km/h (2 Bft)
26.08.2015 14:25 23,9 C 28,6 C 52 % 1013,8 hPa 0,0 mm 4,7 km/h (1 Bft) NO 45 13,4 C 6,7 km/h (2 Bft)
26.08.2015 14:30 23,9 C 28,6 C 50 % 1013,8 hPa 0,0 mm 5,4 km/h (1 Bft) O-NO 67 12,8 C 6,5 km/h (2 Bft)
26.08.2015 14:35 23,9 C 28,5 C 51 % 1013,6 hPa 0,0 mm 6,0 km/h (2 Bft) SW 225 13,1 C 6,0 km/h (2 Bft)
26.08.2015 14:40 23,9 C 28,6 C 50 % 1013,6 hPa 0,0 mm 5,4 km/h (1 Bft) N-NO 22 12,8 C 8,8 km/h (2 Bft)
26.08.2015 14:45 24,1 C 28,9 C 50 % 1013,6 hPa 0,0 mm 5,4 km/h (1 Bft) NO 45 13,0 C 13,7 km/h (3 Bft)
26.08.2015 14:50 24,0 C 28,8 C 53 % 1013,6 hPa 0,0 mm 4,7 km/h (1 Bft) SO 135 13,8 C 7,0 km/h (2 Bft)
26.08.2015 14:55 24,2 C 29,3 C 53 % 1013,7 hPa 0,0 mm 4,4 km/h (1 Bft) O-NO 67 14,0 C 11,7 km/h (2 Bft)
26.08.2015 15:00 24,1 C 28,8 C 52 % 1013,7 hPa 0,0 mm 5,7 km/h (1 Bft) N-NO 22 13,6 C 8,0 km/h (2 Bft)
26.08.2015 15:05 24,0 C 28,6 C 51 % 1013,7 hPa 0,0 mm 7,0 km/h (2 Bft) O-NO 67 13,2 C 4,7 km/h (1 Bft)
26.08.2015 15:10 24,1 C 28,5 C 52 % 1013,7 hPa 0,0 mm 6,7 km/h (2 Bft) N-NW 337 13,6 C 7,0 km/h (2 Bft)
26.08.2015 15:15 24,2 C 28,6 C 53 % 1013,2 hPa 0,0 mm 5,7 km/h (1 Bft) NO 45 14,0 C 7,0 km/h (2 Bft)
26.08.2015 15:20 23,8 C 28,2 C 52 % 1013,2 hPa 0,0 mm 5,7 km/h (1 Bft) N-NO 22 13,3 C 6,5 km/h (2 Bft)
26.08.2015 15:25 23,9 C 27,9 C 53 % 1013,2 hPa 0,0 mm 6,5 km/h (2 Bft) W-SW 247 13,7 C 4,1 km/h (1 Bft)
26.08.2015 15:30 24,0 C 28,3 C 52 % 1013,2 hPa 0,0 mm 6,0 km/h (2 Bft) O 90 13,5 C 8,0 km/h (2 Bft)
26.08.2015 15:35 24,1 C 28,6 C 51 % 1013,1 hPa 0,0 mm 5,4 km/h (1 Bft) NO 45 13,3 C 9,8 km/h (2 Bft)
26.08.2015 15:40 24,1 C 28,2 C 50 % 1013,1 hPa 0,0 mm 6,5 km/h (2 Bft) N-NO 22 13,0 C 4,7 km/h (1 Bft)
26.08.2015 15:45 24,1 C 28,2 C 52 % 1013,1 hPa 0,0 mm 6,2 km/h (2 Bft) O-NO 67 13,6 C 7,0 km/h (2 Bft)
26.08.2015 15:50 24,1 C 28,2 C 51 % 1013,1 hPa 0,0 mm 6,0 km/h (2 Bft) O-NO 67 13,3 C 5,4 km/h (1 Bft)
26.08.2015 15:55 24,0 C 28,2 C 51 % 1013,9 hPa 0,0 mm 6,7 km/h (2 Bft) N-NW 337 13,2 C 7,8 km/h (2 Bft)
26.08.2015 16:00 24,1 C 28,4 C 52 % 1013,9 hPa 0,0 mm 7,0 km/h (2 Bft) O-NO 67 13,6 C 18,4 km/h (3 Bft)
26.08.2015 16:05 24,0 C 28,0 C 51 % 1013,9 hPa 0,0 mm 7,8 km/h (2 Bft) O-NO 67 13,2 C 9,3 km/h (2 Bft)
26.08.2015 16:10 23,8 C 27,7 C 51 % 1013,9 hPa 0,0 mm 10,4 km/h (2 Bft) O-NO 67 13,0 C 21,8 km/h (4 Bft)
26.08.2015 16:15 23,6 C 27,3 C 52 % 1012,6 hPa 0,0 mm 10,1 km/h (2 Bft) O-NO 67 13,2 C 5,7 km/h (1 Bft)
26.08.2015 16:20 23,4 C 27,6 C 52 % 1012,6 hPa 0,0 mm 7,5 km/h (2 Bft) N-NO 22 13,0 C 8,3 km/h (2 Bft)
26.08.2015 16:25 23,4 C 27,8 C 52 % 1012,6 hPa 0,0 mm 6,5 km/h (2 Bft) O 90 13,0 C 18,6 km/h (3 Bft)
26.08.2015 16:30 23,2 C 26,9 C 52 % 1012,6 hPa 0,0 mm 8,5 km/h (2 Bft) O-NO 67 12,8 C 10,9 km/h (2 Bft)
26.08.2015 16:35 23,1 C 26,7 C 52 % 1012,4 hPa 0,0 mm 9,3 km/h (2 Bft) N-NW 337 12,7 C 11,7 km/h (2 Bft)
26.08.2015 16:40 23,2 C 26,4 C 51 % 1012,4 hPa 0,0 mm 8,5 km/h (2 Bft) SO 135 12,5 C 8,5 km/h (2 Bft)
26.08.2015 16:45 23,2 C 26,2 C 53 % 1012,4 hPa 0,0 mm 6,2 km/h (2 Bft) N-NO 22 13,1 C 6,2 km/h (2 Bft)
26.08.2015 16:50 23,2 C 25,7 C 52 % 1012,4 hPa 0,0 mm 4,4 km/h (1 Bft) O-SO 112 12,8 C 4,1 km/h (1 Bft)
26.08.2015 16:55 23,2 C 25,2 C 52 % 1012,2 hPa 0,0 mm 5,2 km/h (1 Bft) O-NO 67 12,8 C 0,0 km/h (0 Bft)
26.08.2015 17:00 23,1 C 24,7 C 52 % 1012,2 hPa 0,0 mm 4,9 km/h (1 Bft) O-NO 67 12,7 C 5,7 km/h (1 Bft)
26.08.2015 17:05 23,1 C 24,5 C 53 % 1012,2 hPa 0,0 mm 4,4 km/h (1 Bft) SO 135 13,0 C 0,0 km/h (0 Bft)
26.08.2015 17:10 23,0 C 24,3 C 53 % 1012,2 hPa 0,0 mm 4,9 km/h (1 Bft) N-NO 22 12,9 C 3,9 km/h (1 Bft)
26.08.2015 17:15 23,1 C 24,3 C 53 % 1012,1 hPa 0,0 mm 4,9 km/h (1 Bft) O-NO 67 13,0 C 10,9 km/h (2 Bft)
26.08.2015 17:20 23,1 C 24,2 C 53 % 1012,1 hPa 0,0 mm 5,2 km/h (1 Bft) O-SO 112 13,0 C 4,7 km/h (1 Bft)
26.08.2015 17:25 23,0 C 24,1 C 53 % 1012,1 hPa 0,0 mm 5,4 km/h (1 Bft) O-NO 67 12,9 C 10,9 km/h (2 Bft)
26.08.2015 17:30 23,0 C 23,9 C 53 % 1012,1 hPa 0,0 mm 5,7 km/h (1 Bft) N-NO 22 12,9 C 8,0 km/h (2 Bft)
26.08.2015 17:35 23,0 C 23,7 C 52 % 1012,0 hPa 0,0 mm 7,0 km/h (2 Bft) O-NO 67 12,6 C 6,7 km/h (2 Bft)
26.08.2015 17:40 22,7 C 23,6 C 54 % 1012,0 hPa 0,0 mm 6,5 km/h (2 Bft) NO 45 12,9 C 7,8 km/h (2 Bft)
26.08.2015 17:45 22,6 C 23,4 C 54 % 1012,0 hPa 0,0 mm 5,7 km/h (1 Bft) O-NO 67 12,8 C 9,6 km/h (2 Bft)
26.08.2015 17:50 22,5 C 23,2 C 55 % 1012,0 hPa 0,0 mm 4,1 km/h (1 Bft) O 90 13,0 C 5,2 km/h (1 Bft)
26.08.2015 17:55 22,4 C 23,2 C 55 % 1011,8 hPa 0,0 mm 3,4 km/h (1 Bft) SO 135 12,9 C 6,7 km/h (2 Bft)
26.08.2015 18:00 22,3 C 23,0 C 55 % 1011,8 hPa 0,0 mm 3,4 km/h (1 Bft) N-NO 22 12,8 C 6,2 km/h (2 Bft)
26.08.2015 18:05 22,2 C 22,9 C 55 % 1011,8 hPa 0,0 mm 3,4 km/h (1 Bft) O 90 12,7 C 4,7 km/h (1 Bft)
26.08.2015 18:10 22,2 C 22,9 C 56 % 1011,8 hPa 0,0 mm 3,1 km/h (1 Bft) N-NO 22 13,0 C 2,8 km/h (1 Bft)
26.08.2015 18:11 22,1 C 22,8 C 56 % 1011,6 hPa 0,0 mm 3,1 km/h (1 Bft) O-NO 67 12,9 C 5,4 km/h (1 Bft)
26.08.2015 18:15 22,1 C 22,8 C 56 % 1011,6 hPa 0,0 mm 3,1 km/h (1 Bft) O-NO 67 12,9 C 5,4 km/h (1 Bft)
26.08.2015 18:20 22,0 C 22,7 C 56 % 1011,6 hPa 0,0 mm 3,6 km/h (1 Bft) N-NO 22 12,8 C 8,8 km/h (2 Bft)
26.08.2015 18:25 21,9 C 22,7 C 56 % 1011,6 hPa 0,0 mm 4,4 km/h (1 Bft) N-NO 22 12,7 C 7,0 km/h (2 Bft)
26.08.2015 18:30 21,7 C 22,6 C 57 % 1011,6 hPa 0,0 mm 2,3 km/h (1 Bft) O-SO 112 12,8 C 0,0 km/h (0 Bft)
26.08.2015 18:35 21,7 C 22,5 C 57 % 1011,9 hPa 0,0 mm 1,6 km/h (1 Bft) SO 135 12,8 C 0,0 km/h (0 Bft)
26.08.2015 18:40 21,5 C 22,3 C 58 % 1011,9 hPa 0,0 mm 0,8 km/h (0 Bft) NO 45 12,9 C 0,0 km/h (0 Bft)
26.08.2015 18:45 21,3 C 22,2 C 58 % 1011,9 hPa 0,0 mm 0,3 km/h (0 Bft) O-NO 67 12,7 C 0,0 km/h (0 Bft)
26.08.2015 18:50 21,2 C 22,0 C 59 % 1011,9 hPa 0,0 mm 1,0 km/h (0 Bft) O-SO 112 12,9 C 3,9 km/h (1 Bft)
26.08.2015 18:55 21,2 C 21,9 C 59 % 1011,4 hPa 0,0 mm 1,0 km/h (0 Bft) O 90 12,9 C 0,0 km/h (0 Bft)
26.08.2015 19:00 21,1 C 21,8 C 59 % 1011,4 hPa 0,0 mm 0,5 km/h (0 Bft) SO 135 12,8 C 0,0 km/h (0 Bft)
26.08.2015 19:05 21,2 C 21,8 C 59 % 1011,4 hPa 0,0 mm 0,5 km/h (0 Bft) O-SO 112 12,9 C 0,0 km/h (0 Bft)
26.08.2015 19:10 21,1 C 21,6 C 59 % 1011,4 hPa 0,0 mm 0,8 km/h (0 Bft) O-NO 67 12,8 C 0,0 km/h (0 Bft)
26.08.2015 19:15 21,0 C 21,4 C 59 % 1011,4 hPa 0,0 mm 1,0 km/h (0 Bft) O 90 12,7 C 0,0 km/h (0 Bft)
26.08.2015 19:20 20,8 C 21,1 C 58 % 1011,4 hPa 0,0 mm 0,5 km/h (0 Bft) O-SO 112 12,2 C 0,0 km/h (0 Bft)
26.08.2015 19:25 20,5 C 20,9 C 59 % 1011,4 hPa 0,0 mm 0,0 km/h (0 Bft) O-SO 112 12,2 C 0,0 km/h (0 Bft)
26.08.2015 19:30 20,5 C 20,7 C 59 % 1011,4 hPa 0,0 mm 0,0 km/h (0 Bft) O-SO 112 12,2 C 0,0 km/h (0 Bft)
26.08.2015 19:35 20,1 C 20,7 C 60 % 1011,4 hPa 0,0 mm 0,3 km/h (0 Bft) S-SO 157 12,1 C 2,8 km/h (1 Bft)
26.08.2015 19:40 20,0 C 20,6 C 61 % 1011,4 hPa 0,0 mm 0,3 km/h (0 Bft) S-SO 157 12,2 C 0,0 km/h (0 Bft)
26.08.2015 19:45 19,9 C 20,9 C 61 % 1011,4 hPa 0,0 mm 0,0 km/h (0 Bft) S-SO 157 12,2 C 0,0 km/h (0 Bft)
26.08.2015 19:50 19,3 C 20,5 C 63 % 1011,4 hPa 0,0 mm 0,0 km/h (0 Bft) S-SO 157 12,1 C 0,0 km/h (0 Bft)
26.08.2015 19:55 18,9 C 20,0 C 64 % 1011,4 hPa 0,0 mm 0,0 km/h (0 Bft) S-SO 157 11,9 C 0,0 km/h (0 Bft)
26.08.2015 20:00 19,0 C 19,5 C 64 % 1011,4 hPa 0,0 mm 0,3 km/h (0 Bft) S-SO 157 12,0 C 3,1 km/h (1 Bft)
26.08.2015 20:05 18,9 C 19,2 C 64 % 1011,4 hPa 0,0 mm 1,0 km/h (0 Bft) S-SO 157 11,9 C 2,8 km/h (1 Bft)
26.08.2015 20:10 18,4 C 18,8 C 65 % 1011,4 hPa 0,0 mm 1,6 km/h (1 Bft) S 180 11,7 C 4,7 km/h (1 Bft)
26.08.2015 20:15 18,2 C 18,5 C 66 % 1011,2 hPa 0,0 mm 1,8 km/h (1 Bft) S 180 11,7 C 3,6 km/h (1 Bft)
26.08.2015 20:20 18,1 C 18,2 C 66 % 1011,2 hPa 0,0 mm 2,1 km/h (1 Bft) S 180 11,6 C 3,1 km/h (1 Bft)
26.08.2015 20:25 17,9 C 17,9 C 67 % 1011,2 hPa 0,0 mm 1,3 km/h (1 Bft) S 180 11,7 C 0,0 km/h (0 Bft)
26.08.2015 20:30 16,7 C 17,2 C 67 % 1011,2 hPa 0,0 mm 0,3 km/h (0 Bft) S 180 10,5 C 0,0 km/h (0 Bft)
26.08.2015 20:35 16,3 C 16,6 C 68 % 1011,4 hPa 0,0 mm 0,0 km/h (0 Bft) S 180 10,4 C 0,0 km/h (0 Bft)
26.08.2015 20:40 16,0 C 15,9 C 70 % 1011,4 hPa 0,0 mm 0,0 km/h (0 Bft) S 180 10,5 C 3,6 km/h (1 Bft)
26.08.2015 20:45 15,9 C 16,0 C 72 % 1011,4 hPa 0,0 mm 0,3 km/h (0 Bft) S 180 10,9 C 0,0 km/h (0 Bft)
26.08.2015 20:50 15,7 C 15,8 C 73 % 1011,4 hPa 0,0 mm 0,5 km/h (0 Bft) O-NO 67 10,9 C 0,0 km/h (0 Bft)
26.08.2015 20:55 15,3 C 15,3 C 73 % 1011,5 hPa 0,0 mm 0,0 km/h (0 Bft) O-NO 67 10,5 C 0,0 km/h (0 Bft)
26.08.2015 21:00 14,9 C 15,2 C 74 % 1011,5 hPa 0,0 mm 0,0 km/h (0 Bft) S 180 10,3 C 0,0 km/h (0 Bft)
26.08.2015 21:05 14,7 C 15,1 C 75 % 1011,5 hPa 0,0 mm 0,0 km/h (0 Bft) S-SO 157 10,3 C 0,0 km/h (0 Bft)
26.08.2015 21:10 14,5 C 14,7 C 75 % 1011,5 hPa 0,0 mm 0,0 km/h (0 Bft) S 180 10,1 C 0,0 km/h (0 Bft)
26.08.2015 21:15 14,5 C 14,8 C 76 % 1012,1 hPa 0,0 mm 0,0 km/h (0 Bft) O-SO 112 10,3 C 0,0 km/h (0 Bft)
26.08.2015 21:20 14,3 C 14,3 C 76 % 1012,1 hPa 0,0 mm 0,0 km/h (0 Bft) SO 135 10,1 C 0,0 km/h (0 Bft)
26.08.2015 21:25 14,3 C 14,3 C 76 % 1012,1 hPa 0,0 mm 0,0 km/h (0 Bft) S-SO 157 10,1 C 0,0 km/h (0 Bft)
26.08.2015 21:30 14,3 C 14,0 C 77 % 1012,1 hPa 0,0 mm 0,0 km/h (0 Bft) SO 135 10,3 C 0,0 km/h (0 Bft)
26.08.2015 21:35 14,1 C 13,8 C 77 % 1011,6 hPa 0,0 mm 0,0 km/h (0 Bft) SO 135 10,1 C 0,0 km/h (0 Bft)
26.08.2015 21:40 13,9 C 13,6 C 78 % 1011,6 hPa 0,0 mm 0,0 km/h (0 Bft) W-SW 247 10,1 C 0,0 km/h (0 Bft)
26.08.2015 21:45 13,9 C 13,6 C 78 % 1011,6 hPa 0,0 mm 0,0 km/h (0 Bft) W-SW 247 10,1 C 0,0 km/h (0 Bft)
26.08.2015 21:50 14,1 C 13,8 C 79 % 1011,6 hPa 0,0 mm 0,0 km/h (0 Bft) S-SO 157 10,5 C 0,0 km/h (0 Bft)
26.08.2015 21:55 13,8 C 13,6 C 79 % 1011,5 hPa 0,0 mm 0,0 km/h (0 Bft) SO 135 10,2 C 0,0 km/h (0 Bft)
26.08.2015 22:00 13,7 C 13,4 C 79 % 1011,5 hPa 0,0 mm 0,0 km/h (0 Bft) SW 225 10,1 C 0,0 km/h (0 Bft)
26.08.2015 22:05 13,8 C 13,5 C 80 % 1011,5 hPa 0,0 mm 0,0 km/h (0 Bft) S 180 10,4 C 0,0 km/h (0 Bft)
26.08.2015 22:10 13,7 C 13,5 C 80 % 1011,5 hPa 0,0 mm 0,0 km/h (0 Bft) SW 225 10,3 C 0,0 km/h (0 Bft)
26.08.2015 22:15 13,5 C 13,3 C 80 % 1011,4 hPa 0,0 mm 0,0 km/h (0 Bft) SW 225 10,1 C 0,0 km/h (0 Bft)
26.08.2015 22:20 13,4 C 13,2 C 81 % 1011,4 hPa 0,0 mm 0,0 km/h (0 Bft) SO 135 10,2 C 0,0 km/h (0 Bft)
26.08.2015 22:25 13,4 C 13,1 C 81 % 1011,4 hPa 0,0 mm 0,5 km/h (0 Bft) SW 225 10,2 C 6,7 km/h (2 Bft)
26.08.2015 22:30 13,4 C 13,2 C 82 % 1011,4 hPa 0,0 mm 1,0 km/h (0 Bft) W-NW 292 10,4 C 0,0 km/h (0 Bft)
26.08.2015 22:35 13,2 C 13,1 C 82 % 1011,6 hPa 0,0 mm 1,0 km/h (0 Bft) W-NW 292 10,2 C 0,0 km/h (0 Bft)
26.08.2015 22:40 13,2 C 13,0 C 82 % 1011,6 hPa 0,0 mm 0,0 km/h (0 Bft) W-NW 292 10,2 C 0,0 km/h (0 Bft)
26.08.2015 22:45 13,2 C 12,9 C 83 % 1011,6 hPa 0,0 mm 0,0 km/h (0 Bft) W-NW 292 10,4 C 0,0 km/h (0 Bft)
26.08.2015 22:50 13,2 C 13,0 C 83 % 1011,6 hPa 0,0 mm 0,3 km/h (0 Bft) W 270 10,4 C 0,0 km/h (0 Bft)
26.08.2015 22:55 13,4 C 13,1 C 84 % 1011,7 hPa 0,0 mm 0,3 km/h (0 Bft) SW 225 10,8 C 0,0 km/h (0 Bft)
26.08.2015 23:00 13,2 C 13,0 C 83 % 1011,7 hPa 0,0 mm 0,0 km/h (0 Bft) W-NW 292 10,4 C 0,0 km/h (0 Bft)
26.08.2015 23:05 13,0 C 12,8 C 83 % 1011,7 hPa 0,0 mm 0,0 km/h (0 Bft) W-NW 292 10,2 C 0,0 km/h (0 Bft)
26.08.2015 23:10 13,1 C 12,8 C 84 % 1011,7 hPa 0,0 mm 0,0 km/h (0 Bft) W-NW 292 10,5 C 0,0 km/h (0 Bft)
26.08.2015 23:15 13,0 C 12,8 C 84 % 1011,4 hPa 0,0 mm 0,0 km/h (0 Bft) W-NW 292 10,4 C 0,0 km/h (0 Bft)
26.08.2015 23:20 12,9 C 12,7 C 85 % 1011,4 hPa 0,0 mm 0,0 km/h (0 Bft) NO 45 10,4 C 0,0 km/h (0 Bft)
26.08.2015 23:25 13,1 C 12,8 C 84 % 1011,4 hPa 0,0 mm 0,0 km/h (0 Bft) NO 45 10,5 C 0,0 km/h (0 Bft)
26.08.2015 23:30 13,1 C 12,8 C 85 % 1011,4 hPa 0,0 mm 0,0 km/h (0 Bft) N-NW 337 10,6 C 0,0 km/h (0 Bft)
26.08.2015 23:35 13,1 C 12,8 C 85 % 1011,5 hPa 0,0 mm 0,0 km/h (0 Bft) SW 225 10,6 C 0,0 km/h (0 Bft)
26.08.2015 23:40 13,2 C 13,0 C 85 % 1011,5 hPa 0,0 mm 0,8 km/h (0 Bft) SO 135 10,7 C 0,0 km/h (0 Bft)
26.08.2015 23:45 13,2 C 13,0 C 85 % 1011,5 hPa 0,0 mm 0,8 km/h (0 Bft) S 180 10,7 C 0,0 km/h (0 Bft)
26.08.2015 23:50 13,0 C 12,9 C 85 % 1011,5 hPa 0,0 mm 0,3 km/h (0 Bft) S 180 10,5 C 0,0 km/h (0 Bft)
26.08.2015 23:55 13,0 C 12,8 C 85 % 1011,4 hPa 0,0 mm 0,3 km/h (0 Bft) S-SO 157 10,5 C 0,0 km/h (0 Bft)
_ Min-Zeit 06:35 06:35 15:40 20:30 - 23:35 - - 06:55 23:55
Minimum _ 6,9 C 6,7 C 50 % 1011,2 hPa - 0,0 km/h (0 Bft) - - 5,3 C 0,0 km/h (0 Bft)
_ Max-Zeit 15:15 14:55 07:40 09:50 23:55 16:10 - - 15:15 16:10
Maximum _ 24,2 C 29,3 C 90 % 1015,3 hPa 0,0 mm 10,4 km/h
O-NO (2 Bft)
- - 14,0 C 21,8 km/h
O-NO (4 Bft)
Durchschnitt _ 15,6 C 17,6 C 72 % 1013,5 hPa #0,0 mm 2,2 km/h (1 Bft) O-NO - 10,0 C 3,0 km/h (1 Bft)